Two Harbors, MN

8:27 PM CST on February 18, 2018 (GMT -0600)
Helgeson

Weather History for KTWM - February, 2013

Change the Weather History Date:

Friday, February 22, 2013

  Actual Average Record
Temperature  
Mean Temperature 24 °F -  
Max Temperature 26 °F 33 °F 49 °F (1961)
Min Temperature 23 °F 14 °F -21 °F (1965)
Degree Days  
Heating Degree Days 40    
Moisture  
Dew Point 20 °F    
Average Humidity 80    
Maximum Humidity 80    
Minimum Humidity 80    
Precipitation  
Precipitation 0.06 in - - ()
Sea Level Pressure  
Sea Level Pressure 29.92 in    
Wind  
Wind Speed 14 mph (ENE)    
Max Wind Speed 22 mph    
Max Gust Speed 33 mph    
Visibility 5 miles    
Events Snow    
Averages and records for this station are not official NWS values.
T = Trace of Precipitation, MM = Missing Value Source: NWS Daily Summary

Daily Weather History Graph

Daily Weather History Graph

Search for Another Location

Airport or City:

Trip Planner

Search our weather history database for the weather conditions in past years. The results will help you decide how hot, cold, wet, or windy it might be!

Date:

Astronomy

Feb. 22, 2013 Rise Set
Actual Time 6:59 AM CST 5:42 PM CST
Civil Twilight 6:28 AM CST 6:13 PM CST
Nautical Twilight 5:52 AM CST 6:48 PM CST
Astronomical Twilight 5:17 AM CST 7:24 PM CST
Moon 2:46 PM CST (2/22) 4:52 AM CST (2/22)
Length of Visible Light 11h 45m
Length of Day
10h 43m
Waxing Gibbous, 90% of the Moon is Illuminated
Feb 22
Waxing Gibbous
Feb 25
Full
Mar 4
Last Quarter
Mar 11
New
Mar 19
First Quarter

Hourly Weather History & Observations

Time (CST) Temp. Windchill Dew Point Humidity Pressure Visibility Wind Dir Wind Speed Gust Speed Precip Events Conditions
12:12 AM 23.0 °F 11.1 °F 17.6 °F 80% 30.14 in 10.0 mi ENE 12.7 mph 17.3 mph N/A   Overcast
12:31 AM 24.8 °F 12.9 °F 19.4 °F 80% 30.13 in 10.0 mi East 13.8 mph 19.6 mph N/A   Overcast
12:51 AM 24.8 °F 11.1 °F 19.4 °F 80% 30.13 in 7.0 mi ENE 18.4 mph 27.6 mph N/A   Overcast
1:12 AM 23.0 °F 11.1 °F 17.6 °F 80% 30.12 in 10.0 mi NE 12.7 mph 25.3 mph N/A   Overcast
1:31 AM 23.0 °F 11.7 °F 17.6 °F 80% 30.12 in 10.0 mi ENE 11.5 mph 24.2 mph N/A   Overcast
1:51 AM 24.8 °F 13.4 °F 19.4 °F 80% 30.11 in 10.0 mi ENE 12.7 mph - N/A   Overcast
2:12 AM 24.8 °F 12.4 °F 19.4 °F 80% 30.10 in 10.0 mi East 15.0 mph 27.6 mph N/A   Overcast
2:31 AM 24.8 °F 10.3 °F 19.4 °F 80% 30.09 in 10.0 mi East 20.7 mph 27.6 mph N/A   Overcast
2:51 AM 24.8 °F 10.0 °F 19.4 °F 80% 30.08 in 10.0 mi ENE 21.9 mph 25.3 mph N/A   Overcast
3:31 AM 24.8 °F 11.9 °F 19.4 °F 80% 30.06 in 10.0 mi East 16.1 mph 26.5 mph N/A   Overcast
3:51 AM 24.8 °F 11.9 °F 19.4 °F 80% 30.05 in 10.0 mi East 16.1 mph 25.3 mph N/A   Overcast
4:12 AM 24.8 °F 12.4 °F 19.4 °F 80% 30.04 in 10.0 mi East 15.0 mph 25.3 mph N/A   Overcast
4:31 AM 24.8 °F 11.5 °F 19.4 °F 80% 30.03 in 10.0 mi ENE 17.3 mph 27.6 mph N/A   Overcast
4:52 AM 24.8 °F 11.9 °F 19.4 °F 80% 30.02 in 10.0 mi East 16.1 mph 23.0 mph N/A   Overcast
5:11 AM 24.8 °F 11.1 °F 19.4 °F 80% 30.01 in 10.0 mi East 18.4 mph 27.6 mph N/A   Overcast
5:31 AM 26.6 °F 13.8 °F 21.2 °F 80% 30.01 in 7.0 mi East 17.3 mph 23.0 mph N/A   Overcast
6:11 AM 26.6 °F 14.7 °F 21.2 °F 80% 29.99 in 10.0 mi ENE 15.0 mph 23.0 mph N/A   Overcast
6:31 AM 26.6 °F 13.8 °F 21.2 °F 80% 29.99 in 10.0 mi ENE 17.3 mph 25.3 mph N/A   Overcast
6:51 AM 26.6 °F 14.7 °F 21.2 °F 80% 29.98 in 10.0 mi ENE 15.0 mph 25.3 mph N/A   Overcast
7:11 AM 26.6 °F 12.7 °F 21.2 °F 80% 29.97 in 10.0 mi ENE 20.7 mph 26.5 mph N/A   Overcast
7:31 AM 26.6 °F 12.7 °F 21.2 °F 80% 29.97 in 7.0 mi ENE 20.7 mph 32.2 mph N/A   Overcast
7:51 AM 26.6 °F 12.7 °F 21.2 °F 80% 29.97 in 7.0 mi ENE 20.7 mph 32.2 mph N/A   Overcast
8:11 AM 26.6 °F 14.7 °F 21.2 °F 80% 29.97 in 10.0 mi ENE 15.0 mph 21.9 mph N/A   Overcast
8:31 AM 26.6 °F 13.1 °F 21.2 °F 80% 29.96 in 1.0 mi East 19.6 mph 31.1 mph N/A Snow Light Snow
8:52 AM 26.6 °F 13.4 °F 21.2 °F 80% 29.95 in 0.5 mi East 18.4 mph 28.8 mph N/A Snow Light Snow
9:12 AM 26.6 °F 13.4 °F 21.2 °F 80% 29.94 in 0.5 mi ENE 18.4 mph 33.4 mph N/A Snow Light Snow
9:31 AM 26.6 °F 14.3 °F 21.2 °F 80% 29.94 in 0.8 mi ENE 16.1 mph 27.6 mph N/A Snow Light Snow
9:51 AM 26.6 °F 12.7 °F 21.2 °F 80% 29.95 in 0.2 mi East 20.7 mph 27.6 mph N/A Snow Snow
10:11 AM 26.6 °F 12.7 °F 21.2 °F 80% 29.94 in 0.5 mi East 20.7 mph 25.3 mph 0.01 in Snow Light Snow
10:31 AM 26.6 °F 13.1 °F 21.2 °F 80% 29.94 in 1.0 mi East 19.6 mph 27.6 mph 0.01 in Snow Light Snow
10:52 AM 26.6 °F 13.4 °F 21.2 °F 80% 29.94 in 1.0 mi East 18.4 mph 28.8 mph 0.01 in Snow Light Snow
11:11 AM 26.6 °F 13.8 °F 21.2 °F 80% 29.94 in 1.2 mi East 17.3 mph 27.6 mph 0.01 in Snow Light Snow
11:31 AM 26.6 °F 16.2 °F 21.2 °F 80% 29.93 in 1.2 mi East 11.5 mph 24.2 mph 0.01 in Snow Light Snow
11:52 AM 26.6 °F 13.8 °F 21.2 °F 80% 29.93 in 1.2 mi East 17.3 mph 20.7 mph 0.01 in Snow Light Snow
12:11 PM 26.6 °F 15.2 °F 21.2 °F 80% 29.92 in 3.0 mi East 13.8 mph 23.0 mph N/A Snow Light Snow
12:31 PM 26.6 °F 15.2 °F 21.2 °F 80% 29.91 in 1.2 mi East 13.8 mph 17.3 mph N/A Snow Light Snow
12:52 PM 26.6 °F 15.7 °F 21.2 °F 80% 29.90 in 1.5 mi East 12.7 mph 19.6 mph N/A Snow Light Snow
1:11 PM 26.6 °F 14.3 °F 21.2 °F 80% 29.89 in 0.8 mi East 16.1 mph 19.6 mph N/A Snow Light Snow
1:31 PM 26.6 °F 17.5 °F 21.2 °F 80% 29.89 in 0.5 mi East 9.2 mph - 0.01 in Snow Snow
1:52 PM 26.6 °F 16.8 °F 21.2 °F 80% 29.88 in 0.2 mi East 10.4 mph - 0.01 in Snow Snow
2:11 PM 26.6 °F 15.7 °F 21.2 °F 80% 29.87 in 0.2 mi East 12.7 mph - 0.01 in Snow Snow
2:31 PM 26.6 °F 14.3 °F 21.2 °F 80% 29.86 in 0.5 mi ENE 16.1 mph - 0.02 in Snow Light Snow
2:51 PM 26.6 °F 14.3 °F 21.2 °F 80% 29.85 in 1.2 mi ENE 16.1 mph 20.7 mph 0.02 in Snow Light Snow
3:11 PM 26.6 °F 14.7 °F 21.2 °F 80% 29.85 in 2.5 mi ENE 15.0 mph 21.9 mph N/A   Haze
3:31 PM 26.6 °F 15.7 °F 21.2 °F 80% 29.85 in 4.0 mi ENE 12.7 mph 23.0 mph N/A   Haze
3:51 PM 26.6 °F 14.7 °F 21.2 °F 80% 29.84 in 3.0 mi ENE 15.0 mph 21.9 mph N/A   Haze
4:11 PM 26.6 °F 14.7 °F 21.2 °F 80% 29.84 in 2.5 mi ENE 15.0 mph 20.7 mph N/A   Haze
4:31 PM 26.6 °F 17.5 °F 21.2 °F 80% 29.84 in 1.2 mi ENE 9.2 mph 18.4 mph N/A Snow Light Snow
4:51 PM 26.6 °F 15.2 °F 21.2 °F 80% 29.84 in 1.2 mi ENE 13.8 mph 17.3 mph N/A   Haze
5:11 PM 26.6 °F 15.7 °F 21.2 °F 80% 29.84 in 2.0 mi NE 12.7 mph 18.4 mph N/A   Haze
5:31 PM 26.6 °F 16.8 °F 21.2 °F 80% 29.84 in 2.0 mi NE 10.4 mph 16.1 mph N/A Snow Light Snow
5:51 PM 26.6 °F 16.8 °F 21.2 °F 80% 29.84 in 3.0 mi NE 10.4 mph 18.4 mph N/A Snow Light Snow
6:11 PM 26.6 °F 17.5 °F 21.2 °F 80% 29.84 in 2.5 mi NE 9.2 mph - N/A Snow Light Snow
6:31 PM 26.6 °F 18.2 °F 21.2 °F 80% 29.84 in 1.5 mi NE 8.1 mph - 0.01 in Snow Light Snow
6:51 PM 24.8 °F 16.1 °F 19.4 °F 80% 29.84 in 2.5 mi NE 8.1 mph - 0.01 in Snow Light Snow
7:11 PM 24.8 °F 17.9 °F 19.4 °F 80% 29.84 in 3.0 mi NE 5.8 mph - N/A Snow Light Snow
7:32 PM 24.8 °F 16.9 °F 19.4 °F 80% 29.83 in 3.0 mi NE 6.9 mph - N/A Snow Light Snow
7:51 PM 24.8 °F 16.1 °F 19.4 °F 80% 29.83 in 3.0 mi NE 8.1 mph - N/A Snow Light Snow
8:11 PM 24.8 °F 19.1 °F 19.4 °F 80% 29.83 in 2.5 mi NNE 4.6 mph - N/A Snow Light Snow
8:32 PM 24.8 °F 17.9 °F 19.4 °F 80% 29.82 in 2.5 mi NNE 5.8 mph - N/A Snow Light Snow
8:51 PM 24.8 °F 16.9 °F 19.4 °F 80% 29.82 in 2.5 mi NNE 6.9 mph - N/A Snow Light Snow
9:11 PM 24.8 °F 16.9 °F 19.4 °F 80% 29.82 in 3.0 mi NNE 6.9 mph - N/A Snow Light Snow
9:31 PM 24.8 °F 16.9 °F 19.4 °F 80% 29.81 in 3.0 mi NNE 6.9 mph - N/A Snow Light Snow
9:51 PM 24.8 °F 17.9 °F 19.4 °F 80% 29.81 in 4.0 mi NNE 5.8 mph - N/A Snow Light Snow
10:12 PM 24.8 °F 17.9 °F 19.4 °F 80% 29.80 in 4.0 mi NNE 5.8 mph - N/A Snow Light Snow
10:31 PM 24.8 °F 17.9 °F 19.4 °F 80% 29.80 in 5.0 mi North 5.8 mph - N/A Snow Light Snow
10:51 PM 24.8 °F 20.5 °F 19.4 °F 80% 29.80 in 5.0 mi NNE 3.5 mph - N/A Snow Light Snow
11:12 PM 24.8 °F 19.1 °F 19.4 °F 80% 29.80 in 7.0 mi North 4.6 mph - N/A   Overcast
11:31 PM 24.8 °F 20.5 °F 19.4 °F 80% 29.79 in 5.0 mi North 3.5 mph - N/A Snow Light Snow
11:51 PM 24.8 °F 16.9 °F 19.4 °F 80% 29.78 in 3.0 mi North 6.9 mph - N/A Snow Light Snow